TimeCDT,TemperatureF,Dew PointF,Humidity,Sea Level PressureIn,VisibilityMPH,Wind Direction,Wind SpeedMPH,Gust SpeedMPH,PrecipitationIn,Events,Conditions,WindDirDegrees,DateUTC
12:15 AM,69.8,59.0,68,29.74,10.0,South,9.2,19.6,N/A,,Clear,170,2012-10-25 05:15:00
12:35 AM,69.8,59.0,68,29.75,10.0,South,9.2,-,N/A,,Clear,170,2012-10-25 05:35:00
12:55 AM,69.8,59.0,68,29.75,10.0,SSE,11.5,-,N/A,,Clear,160,2012-10-25 05:55:00
1:15 AM,69.8,59.0,68,29.74,10.0,SSE,8.1,-,N/A,,Scattered Clouds,160,2012-10-25 06:15:00
1:35 AM,68.0,59.0,73,29.74,10.0,SSE,8.1,-,N/A,,Scattered Clouds,160,2012-10-25 06:35:00
1:55 AM,68.0,59.0,73,29.74,10.0,SSE,9.2,-,N/A,,Mostly Cloudy,160,2012-10-25 06:55:00
2:35 AM,68.0,59.0,73,29.73,10.0,SSE,9.2,-,N/A,,Mostly Cloudy,160,2012-10-25 07:35:00
2:55 AM,68.0,59.0,73,29.73,10.0,SSE,9.2,-,N/A,,Overcast,160,2012-10-25 07:55:00
3:15 AM,68.0,59.0,73,29.72,10.0,SSE,15.0,19.6,N/A,,Overcast,160,2012-10-25 08:15:00
3:35 AM,68.0,59.0,73,29.70,10.0,SSE,13.8,20.7,N/A,,Mostly Cloudy,160,2012-10-25 08:35:00
3:55 AM,68.0,59.0,73,29.70,10.0,SSE,13.8,20.7,N/A,,Scattered Clouds,160,2012-10-25 08:55:00
4:15 AM,68.0,59.0,73,29.70,10.0,SSE,13.8,18.4,N/A,,Scattered Clouds,160,2012-10-25 09:15:00
4:35 AM,68.0,59.0,73,29.70,10.0,SSE,12.7,-,N/A,,Clear,160,2012-10-25 09:35:00
4:55 AM,68.0,59.0,73,29.69,10.0,South,13.8,19.6,N/A,,Clear,170,2012-10-25 09:55:00
5:15 AM,68.0,59.0,73,29.70,10.0,SSE,12.7,19.6,N/A,,Clear,160,2012-10-25 10:15:00
5:35 AM,68.0,59.0,73,29.69,10.0,SSE,12.7,-,N/A,,Clear,160,2012-10-25 10:35:00
5:55 AM,68.0,59.0,73,29.69,10.0,South,12.7,20.7,N/A,,Clear,170,2012-10-25 10:55:00
6:15 AM,68.0,59.0,73,29.72,10.0,SSW,9.2,-,N/A,,Mostly Cloudy,200,2012-10-25 11:15:00
6:35 AM,68.0,60.8,78,29.71,10.0,South,11.5,-,N/A,,Overcast,170,2012-10-25 11:35:00
6:55 AM,68.0,60.8,78,29.71,10.0,South,11.5,-,N/A,,Overcast,180,2012-10-25 11:55:00
7:15 AM,68.0,60.8,78,29.70,10.0,South,12.7,-,N/A,,Overcast,170,2012-10-25 12:15:00
7:55 AM,68.0,60.8,78,29.71,10.0,South,9.2,18.4,N/A,,Overcast,180,2012-10-25 12:55:00
8:15 AM,68.0,60.8,78,29.71,10.0,South,12.7,-,N/A,,Overcast,180,2012-10-25 13:15:00
8:35 AM,69.8,60.8,73,29.72,10.0,South,10.4,-,N/A,,Overcast,180,2012-10-25 13:35:00
8:55 AM,69.8,60.8,73,29.73,10.0,South,11.5,18.4,N/A,,Overcast,180,2012-10-25 13:55:00
9:15 AM,69.8,60.8,73,29.73,10.0,SSW,15.0,25.3,N/A,,Overcast,200,2012-10-25 14:15:00
9:35 AM,62.6,55.4,77,29.77,10.0,West,11.5,26.5,N/A,,Overcast,280,2012-10-25 14:35:00
9:55 AM,53.6,50.0,88,29.79,10.0,WNW,12.7,24.2,N/A,,Overcast,300,2012-10-25 14:55:00
10:15 AM,51.8,46.4,82,29.82,10.0,WNW,20.7,28.8,N/A,,Overcast,300,2012-10-25 15:15:00
10:35 AM,50.0,44.6,82,29.85,10.0,WNW,15.0,25.3,N/A,Rain,Light Rain,300,2012-10-25 15:35:00
10:55 AM,48.2,44.6,87,29.86,10.0,WNW,12.7,23.0,N/A,,Overcast,300,2012-10-25 15:55:00
11:15 AM,46.4,42.8,87,29.88,7.0,WNW,16.1,21.9,N/A,Rain,Rain,300,2012-10-25 16:15:00
11:35 AM,44.6,42.8,93,29.90,10.0,WNW,16.1,19.6,N/A,Rain,Rain,300,2012-10-25 16:35:00
11:55 AM,44.6,41.0,87,29.91,7.0,WNW,17.3,23.0,N/A,Rain,Light Rain,300,2012-10-25 16:55:00
12:15 PM,44.6,41.0,87,29.92,10.0,NW,18.4,24.2,N/A,,Light Drizzle,310,2012-10-25 17:15:00
12:35 PM,44.6,41.0,87,29.94,10.0,WNW,16.1,23.0,N/A,,Overcast,300,2012-10-25 17:35:00
12:55 PM,44.6,41.0,87,29.95,10.0,WNW,17.3,24.2,N/A,,Overcast,300,2012-10-25 17:55:00
1:15 PM,44.6,39.2,81,29.97,10.0,WNW,11.5,23.0,N/A,,Overcast,300,2012-10-25 18:15:00
1:35 PM,44.6,39.2,81,29.97,10.0,NW,16.1,20.7,N/A,,Drizzle,310,2012-10-25 18:35:00
1:55 PM,42.8,39.2,87,29.99,10.0,WNW,17.3,23.0,0.01,,Drizzle,300,2012-10-25 18:55:00
2:15 PM,42.8,39.2,87,30.00,10.0,WNW,18.4,24.2,N/A,,Overcast,290,2012-10-25 19:15:00
2:35 PM,42.8,37.4,81,30.01,10.0,NW,19.6,28.8,N/A,,Overcast,310,2012-10-25 19:35:00
2:55 PM,42.8,37.4,81,30.02,10.0,NW,16.1,25.3,N/A,,Overcast,310,2012-10-25 19:55:00
3:15 PM,42.8,37.4,81,30.03,10.0,NW,16.1,26.5,N/A,,Overcast,320,2012-10-25 20:15:00
3:35 PM,42.8,37.4,81,30.04,10.0,NW,15.0,25.3,N/A,,Overcast,320,2012-10-25 20:35:00
3:55 PM,42.8,37.4,81,30.06,10.0,NW,15.0,26.5,N/A,,Overcast,320,2012-10-25 20:55:00
4:15 PM,44.6,35.6,71,30.06,10.0,NNW,13.8,18.4,N/A,,Overcast,330,2012-10-25 21:15:00
4:35 PM,44.6,37.4,76,30.07,10.0,NW,12.7,16.1,N/A,,Overcast,320,2012-10-25 21:35:00
4:55 PM,44.6,35.6,71,30.08,10.0,NNW,16.1,23.0,N/A,,Overcast,340,2012-10-25 21:55:00
5:15 PM,44.6,35.6,71,30.09,10.0,NW,10.4,-,N/A,,Overcast,320,2012-10-25 22:15:00
5:35 PM,44.6,35.6,71,30.10,10.0,NNW,12.7,18.4,N/A,,Overcast,340,2012-10-25 22:35:00
5:55 PM,44.6,35.6,71,30.11,10.0,NNW,12.7,16.1,N/A,,Overcast,340,2012-10-25 22:55:00
6:15 PM,44.6,35.6,71,30.12,10.0,NNW,6.9,-,N/A,,Overcast,330,2012-10-25 23:15:00
6:55 PM,44.6,35.6,71,30.13,10.0,NW,8.1,-,N/A,,Overcast,320,2012-10-25 23:55:00
7:15 PM,44.6,35.6,71,30.15,10.0,NW,6.9,-,N/A,,Overcast,320,2012-10-26 00:15:00
7:35 PM,44.6,35.6,71,30.16,10.0,NNW,10.4,16.1,N/A,,Overcast,330,2012-10-26 00:35:00
8:15 PM,44.6,33.8,66,30.19,10.0,NW,15.0,25.3,N/A,,Overcast,320,2012-10-26 01:15:00
8:55 PM,42.8,33.8,70,30.21,10.0,NW,12.7,19.6,N/A,,Mostly Cloudy,310,2012-10-26 01:55:00
9:15 PM,42.8,33.8,70,30.22,10.0,NW,10.4,18.4,N/A,,Scattered Clouds,320,2012-10-26 02:15:00
9:35 PM,42.8,32.0,66,30.23,10.0,NW,15.0,21.9,N/A,,Mostly Cloudy,320,2012-10-26 02:35:00
9:55 PM,41.0,32.0,70,30.24,10.0,NW,12.7,-,N/A,,Overcast,320,2012-10-26 02:55:00
10:15 PM,41.0,32.0,70,30.25,10.0,NNW,13.8,20.7,N/A,,Overcast,330,2012-10-26 03:15:00
10:55 PM,39.2,32.0,75,30.26,10.0,NNW,11.5,19.6,N/A,,Mostly Cloudy,340,2012-10-26 03:55:00
11:15 PM,41.0,32.0,70,30.28,10.0,NNW,10.4,-,N/A,,Overcast,340,2012-10-26 04:15:00
11:35 PM,39.2,30.2,70,30.28,10.0,NNW,11.5,-,N/A,,Overcast,330,2012-10-26 04:35:00
11:55 PM,39.2,30.2,70,30.28,10.0,NNW,15.0,20.7,N/A,,Overcast,330,2012-10-26 04:55:00